334P/NEAT (2017)

Japanese version
Home page
Updated on March 25, 2017

---------------------------------------------------------------------

* Profile

Designation 334P/2016 A4
Recovery Date January 7 and 10, 2016
Magnitude 20.1 mag, 19.8 mag
Recoverer K. Sarneczky, S. Kurti, P. Szekely (Piszkesteto Station of Konkoly Observatory), E. Schwab, P. Ruiz (European Space Agency's Optical Ground Station, Tenerife)

* Pictures

* Orbital Elements

Epoch 2017 May 7.0 TT = JDT 2457880.5
T 2017 May 5.37437 TT                                   MPCW
q   4.1846235            (2000.0)            P               Q
n   0.05901019     Peri.   80.52033     -0.93892617     -0.10985888
a   6.5340841      Node    92.65261     -0.01672706     -0.93198093
e   0.3595700      Incl.   19.05413     +0.34371186     -0.34545995
P  16.70
From 233 observations 2001 Feb. 24-2017 Mar. 6, mean residual 0".6.

* Magnitudes Graph

        m1 = 6.5 + 5 log d + 15.0 log r

---------------------------------------------------------------------

The orbital elements are published on M.P.E.C. 2017-E59.
The magnitudes graphs are made with Comet for Windows.

---------------------------------------------------------------------

Copyright(C) Seiichi Yoshida (comet@aerith.net). All rights reserved.